Weather History for Topeka Forbes, KS

Change the Weather History Date:

Friday, February 7, 2014

  Actual Average Record
Temperature  
Mean Temperature 9 °F -  
Max Temperature 16 °F 38 °F 71 °F (2009)
Min Temperature 3 °F 16 °F -11 °F (1971)
Degree Days  
Heating Degree Days 56    
Moisture  
Dew Point 1 °F    
Average Humidity 65    
Maximum Humidity 74    
Minimum Humidity 56    
Precipitation  
Precipitation 0.00 in - - ()
Sea Level Pressure  
Sea Level Pressure 30.36 in    
Wind  
Wind Speed 3 mph (SE)    
Max Wind Speed 10 mph    
Max Gust Speed -    
Visibility 10 miles    
Events      
Averages and records for this station are not official NWS values.
T = Trace of Precipitation, MM = Missing Value Source: NWS Daily Summary

Daily Weather History Graph

Daily Weather History Graph

Search for Another Location

Airport:

Trip Planner

Search our weather history database for the weather conditions in past years. The results will help you decide how hot, cold, wet, or windy it might be!

Date:

Astronomy

Feb. 07, 2014 Rise Set
Actual Time 7:23 AM CST 5:51 PM CST
Civil Twilight 6:55 AM CST 6:18 PM CST
Nautical Twilight 6:23 AM CST 6:50 PM CST
Astronomical Twilight 5:52 AM CST 7:21 PM CST
Moon 12:03 PM CST (2/7) 1:39 AM CST (2/7)
Length of Visible Light 11h 23m
Length of Day
10h 27m
First Quarter, 59% of the Moon is Illuminated
Feb 7
First Quarter
Feb 14
Full
Feb 22
Last Quarter
Mar 1
New
Mar 8
First Quarter

Hourly Weather History & Observations

Time (CST) Temp. Windchill Dew Point Humidity Pressure Visibility Wind Dir Wind Speed Gust Speed Precip Events Conditions
12:53 AM 5.0 °F - -4.0 °F 66% 30.48 in 10.0 mi Calm Calm - N/A   Overcast
1:53 AM 5.0 °F -2.1 °F -2.9 °F 70% 30.48 in 10.0 mi SSW 3.5 mph - N/A   Overcast
2:53 AM 6.1 °F - -2.0 °F 69% 30.48 in 10.0 mi Calm Calm - N/A   Overcast
3:53 AM 5.0 °F - -2.9 °F 70% 30.47 in 10.0 mi Calm Calm - N/A   Overcast
4:53 AM 6.1 °F - -2.0 °F 69% 30.46 in 10.0 mi Calm Calm - N/A   Overcast
5:53 AM 5.0 °F - -2.0 °F 73% 30.45 in 10.0 mi Calm Calm - N/A   Overcast
6:53 AM 3.9 °F - -2.9 °F 73% 30.46 in 10.0 mi Calm Calm - N/A   Overcast
7:53 AM 5.0 °F -2.1 °F -2.9 °F 70% 30.45 in 10.0 mi ESE 3.5 mph - N/A   Overcast
8:53 AM 7.0 °F -1.7 °F -2.9 °F 64% 30.45 in 10.0 mi SSE 4.6 mph - N/A   Overcast
9:53 AM 9.0 °F -5.1 °F -4.0 °F 56% 30.45 in 10.0 mi SSE 10.4 mph - N/A   Overcast
10:53 AM 10.0 °F -2.9 °F -2.0 °F 58% 30.45 in 10.0 mi SE 9.2 mph - N/A   Overcast
11:53 AM 10.9 °F 0.2 °F -0.9 °F 59% 30.43 in 10.0 mi SE 6.9 mph - N/A   Overcast
12:53 PM 12.0 °F 4.1 °F -0.0 °F 59% 30.38 in 10.0 mi SSE 4.6 mph - N/A   Overcast
1:53 PM 12.9 °F 6.9 °F -0.0 °F 56% 30.35 in 10.0 mi SE 3.5 mph - N/A   Overcast
2:53 PM 14.0 °F 5.1 °F 1.0 °F 56% 30.32 in 10.0 mi ESE 5.8 mph - N/A   Overcast
3:40 PM 14.0 °F 5.1 °F 1.0 °F 56% 30.24 in 10.0 mi SE 5.8 mph - N/A   Overcast
3:53 PM 14.0 °F 2.0 °F 1.0 °F 56% 30.30 in 10.0 mi SE 9.2 mph - N/A   Overcast
4:53 PM 14.0 °F 5.1 °F 1.9 °F 59% 30.29 in 10.0 mi SE 5.8 mph - N/A   Overcast
5:53 PM 14.0 °F 1.2 °F 3.0 °F 62% 30.29 in 10.0 mi SE 10.4 mph - N/A   Overcast
6:53 PM 15.1 °F 6.4 °F 3.9 °F 61% 30.30 in 10.0 mi SE 5.8 mph - N/A   Overcast
7:53 PM 15.1 °F 4.2 °F 5.0 °F 64% 30.30 in 10.0 mi SE 8.1 mph - N/A   Overcast
8:39 PM 15.1 °F 6.4 °F 6.1 °F 68% 30.22 in 10.0 mi SE 5.8 mph - N/A   Overcast
8:53 PM 15.1 °F 6.4 °F 6.1 °F 68% 30.29 in 10.0 mi SE 5.8 mph - N/A   Overcast
9:53 PM 15.1 °F 7.7 °F 7.0 °F 70% 30.27 in 10.0 mi SE 4.6 mph - N/A   Overcast
10:31 PM 15.1 °F 7.7 °F 7.0 °F 70% 30.20 in 10.0 mi SE 4.6 mph - N/A   Overcast
10:53 PM 15.1 °F 7.7 °F 8.1 °F 74% 30.25 in 10.0 mi SE 4.6 mph - N/A   Overcast
11:53 PM 16.0 °F 10.4 °F 9.0 °F 74% 30.24 in 10.0 mi SSE 3.5 mph - N/A   Overcast